Weather History for KDKB - April, 2014

Change the Weather History Date:

Thursday, April 24, 2014

  Actual Average (KARR) Record (KARR)
Temperature  
Mean Temperature 51 °F 52 °F  
Max Temperature 66 °F 63 °F 82 °F (2009)
Min Temperature 36 °F 40 °F 24 °F (2015)
Degree Days  
Heating Degree Days 14 14  
Month to date heating degree days 422  
Since 1 July heating degree days 6430  
Cooling Degree Days 0 0  
Month to date cooling degree days 0  
Year to date cooling degree days 0  
Growing Degree Days 1 (Base 50)    
Moisture  
Dew Point 36 °F    
Average Humidity 60    
Maximum Humidity 83    
Minimum Humidity 31    
Precipitation  
Precipitation 0.04 in 0.10 in 0.58 in (2009)
Month to date precipitation 2.47  
Year to date precipitation 7.79  
Sea Level Pressure  
Sea Level Pressure 29.85 in    
Wind  
Wind Speed 15 mph (ESE)    
Max Wind Speed 30 mph    
Max Gust Speed 41 mph    
Visibility 10 miles    
Events Rain , Thunderstorm    
T = Trace of Precipitation, MM = Missing Value Source: NWS Daily Summary

Daily Weather History Graph

Daily Weather History Graph

Search for Another Location

Airport or City:

Trip Planner

Search our weather history database for the weather conditions in past years. The results will help you decide how hot, cold, wet, or windy it might be!

Date:

Astronomy

Apr. 24, 2014 Rise Set
Actual Time 6:00 AM CDT 7:45 PM CDT
Civil Twilight 5:31 AM CDT 8:15 PM CDT
Nautical Twilight 4:54 AM CDT 8:51 PM CDT
Astronomical Twilight 4:16 AM CDT 9:30 PM CDT
Moon 3:16 AM CDT (4/24) 2:56 PM CDT (4/24)
Length of Visible Light 14h 44m
Length of Day
13h 45m
Waning Crescent, 24% of the Moon is Illuminated
Apr 24
Waning Crescent
Apr 29
New
May 6
First Quarter
May 14
Full
May 21
Last Quarter

Hourly Weather History & Observations

Time (CDT) Temp. Windchill Dew Point Humidity Pressure Visibility Wind Dir Wind Speed Gust Speed Precip Events Conditions
12:15 AM 37.9 °F 31.5 °F 31.8 °F 79% 30.05 in 10.0 mi ENE 9.2 mph - N/A   Overcast
12:35 AM 37.6 °F 30.0 °F 31.1 °F 77% 30.05 in 10.0 mi ENE 11.5 mph - N/A   Overcast
12:55 AM 37.4 °F 29.8 °F 31.1 °F 78% 30.05 in 10.0 mi ENE 11.5 mph - N/A   Overcast
1:15 AM 37.4 °F 29.8 °F 30.6 °F 76% 30.05 in 10.0 mi ENE 11.5 mph - N/A   Overcast
1:35 AM 37.0 °F 29.8 °F 30.6 °F 77% 30.06 in 10.0 mi ENE 10.4 mph - N/A   Overcast
1:55 AM 36.7 °F 29.4 °F 31.1 °F 80% 30.05 in 10.0 mi ENE 10.4 mph - N/A   Overcast
2:15 AM 36.7 °F 28.4 °F 31.1 °F 80% 30.04 in 10.0 mi East 12.7 mph - N/A   Overcast
2:35 AM 36.9 °F 30.1 °F 31.8 °F 82% 30.06 in 10.0 mi ENE 9.2 mph - N/A   Overcast
2:55 AM 36.7 °F 29.4 °F 32.0 °F 83% 30.06 in 10.0 mi ENE 10.4 mph - N/A   Overcast
3:15 AM 36.7 °F 28.9 °F 32.0 °F 83% 30.04 in 10.0 mi ENE 11.5 mph - N/A   Overcast
3:35 AM 37.4 °F 29.3 °F 32.0 °F 81% 30.04 in 10.0 mi ENE 12.7 mph - N/A   Overcast
3:55 AM 37.8 °F 30.2 °F 32.0 °F 80% 30.03 in 10.0 mi East 11.5 mph - N/A   Overcast
4:15 AM 38.5 °F 30.7 °F 32.0 °F 78% 30.03 in 10.0 mi East 12.7 mph - N/A   Overcast
4:35 AM 38.3 °F 30.1 °F 32.2 °F 79% 30.02 in 10.0 mi East 13.8 mph - N/A   Overcast
4:55 AM 38.7 °F 30.9 °F 32.4 °F 78% 30.01 in 10.0 mi East 12.7 mph - N/A   Mostly Cloudy
5:15 AM 39.2 °F 32.0 °F 32.2 °F 76% 30.01 in 10.0 mi East 11.5 mph - N/A   Mostly Cloudy
5:35 AM 39.2 °F 32.0 °F 32.4 °F 76% 30.00 in 10.0 mi East 11.5 mph - N/A   Mostly Cloudy
5:55 AM 39.4 °F 31.8 °F 32.2 °F 75% 29.99 in 10.0 mi East 12.7 mph - N/A   Scattered Clouds
6:15 AM 39.4 °F 31.8 °F 32.4 °F 76% 29.99 in 10.0 mi East 12.7 mph - N/A   Scattered Clouds
6:35 AM 40.1 °F 32.4 °F 32.5 °F 74% 29.98 in 10.0 mi East 13.8 mph - N/A   Scattered Clouds
6:55 AM 40.5 °F 32.8 °F 33.4 °F 76% 29.97 in 10.0 mi East 13.8 mph - N/A   Mostly Cloudy
7:15 AM 41.2 °F 33.7 °F 34.0 °F 76% 29.96 in 10.0 mi East 13.8 mph - N/A   Scattered Clouds
7:35 AM 42.6 °F 35.2 °F 34.2 °F 72% 29.96 in 10.0 mi ESE 15.0 mph - N/A   Clear
7:55 AM 44.2 °F 37.0 °F 34.5 °F 69% 29.96 in 10.0 mi ESE 16.1 mph - N/A   Scattered Clouds
8:15 AM 46.0 °F 39.0 °F 35.2 °F 66% 29.95 in 10.0 mi ESE 17.3 mph 23.0 mph N/A   Scattered Clouds
8:35 AM 48.2 °F - 35.1 °F 60% 29.95 in 10.0 mi SE 18.4 mph 26.5 mph N/A   Scattered Clouds
8:55 AM 49.3 °F - 35.4 °F 59% 29.94 in 10.0 mi SE 21.9 mph 27.6 mph N/A   Scattered Clouds
9:15 AM 49.8 °F - 35.8 °F 59% 29.94 in 10.0 mi SE 23.0 mph 28.8 mph N/A   Scattered Clouds
9:35 AM 50.4 °F - 36.5 °F 59% 29.93 in 10.0 mi SE 18.4 mph 26.5 mph N/A   Scattered Clouds
9:55 AM 53.1 °F - 37.6 °F 56% 29.92 in 10.0 mi SE 23.0 mph 28.8 mph N/A   Scattered Clouds
10:15 AM 52.5 °F - 36.7 °F 55% 29.90 in 10.0 mi SE 21.9 mph 32.2 mph N/A   Mostly Cloudy
10:35 AM 54.1 °F - 37.8 °F 54% 29.90 in 10.0 mi SSE 24.2 mph 33.4 mph N/A   Overcast
10:55 AM 55.9 °F - 37.9 °F 51% 29.90 in 10.0 mi SE 26.5 mph 32.2 mph N/A   Overcast
11:15 AM 56.7 °F - 38.3 °F 50% 29.90 in 10.0 mi SSE 26.5 mph 29.9 mph N/A   Overcast
11:35 AM 57.9 °F - 38.5 °F 48% 29.88 in 10.0 mi SSE 23.0 mph 32.2 mph N/A   Overcast
11:55 AM 58.3 °F - 37.2 °F 45% 29.87 in 10.0 mi SSE 24.2 mph 34.5 mph N/A   Scattered Clouds
12:15 PM 58.6 °F - 37.2 °F 45% 29.86 in 10.0 mi SE 26.5 mph 36.8 mph N/A   Clear
12:35 PM 60.3 °F - 36.7 °F 41% 29.84 in 10.0 mi SE 29.9 mph 40.3 mph N/A   Clear
12:55 PM 60.4 °F - 36.9 °F 42% 29.82 in 10.0 mi SE 23.0 mph 38.0 mph N/A Thunderstorm Clear
1:15 PM 59.4 °F - 36.7 °F 43% 29.82 in 10.0 mi SE 28.8 mph 36.8 mph N/A   Clear
1:35 PM 60.1 °F - 36.9 °F 42% 29.82 in 10.0 mi SSE 27.6 mph 35.7 mph N/A   Clear
1:55 PM 60.8 °F - 37.2 °F 42% 29.80 in 10.0 mi SE 29.9 mph 40.3 mph N/A   Clear
2:15 PM 61.5 °F - 37.8 °F 41% 29.78 in 10.0 mi SE 21.9 mph 32.2 mph N/A   Clear
2:35 PM 64.4 °F - 37.6 °F 37% 29.77 in 10.0 mi SSE 27.6 mph 34.5 mph N/A   Clear
2:55 PM 66.0 °F - 34.3 °F 31% 29.76 in 10.0 mi SSE 27.6 mph 41.4 mph N/A   Scattered Clouds
3:15 PM 63.7 °F - 35.1 °F 34% 29.77 in 10.0 mi SSE 27.6 mph 34.5 mph N/A   Mostly Cloudy
3:35 PM 63.1 °F - 35.6 °F 36% 29.76 in 10.0 mi SSE 21.9 mph 29.9 mph N/A   Overcast
3:55 PM 64.0 °F - 35.8 °F 35% 29.75 in 10.0 mi SSE 23.0 mph 32.2 mph N/A   Overcast
4:15 PM 63.5 °F - 35.4 °F 35% 29.73 in 10.0 mi SE 23.0 mph 27.6 mph N/A   Overcast
4:35 PM 63.5 °F - 35.6 °F 35% 29.72 in 10.0 mi SE 19.6 mph 31.1 mph N/A   Mostly Cloudy
4:55 PM 63.9 °F - 35.8 °F 35% 29.71 in 10.0 mi SE 21.9 mph 27.6 mph N/A   Scattered Clouds
5:15 PM 62.8 °F - 35.4 °F 36% 29.69 in 10.0 mi SE 23.0 mph 28.8 mph N/A   Mostly Cloudy
5:35 PM 61.3 °F - 36.5 °F 40% 29.70 in 10.0 mi SE 18.4 mph 27.6 mph N/A   Light Drizzle
5:55 PM 59.5 °F - 38.7 °F 46% 29.70 in 10.0 mi SE 15.0 mph - N/A Rain Light Rain
6:15 PM 60.1 °F - 37.8 °F 44% 29.70 in 10.0 mi SE 17.3 mph 23.0 mph N/A   Mostly Cloudy
6:35 PM 59.9 °F - 37.6 °F 44% 29.69 in 10.0 mi SE 15.0 mph 19.6 mph N/A   Mostly Cloudy
6:55 PM 58.8 °F - 38.3 °F 47% 29.69 in 10.0 mi SE 12.7 mph 20.7 mph N/A Rain Light Rain
7:15 PM 55.4 °F - 41.5 °F 60% 29.69 in 10.0 mi ESE 15.0 mph - N/A Rain Light Rain
7:35 PM 55.4 °F - 41.2 °F 59% 29.69 in 10.0 mi SE 12.7 mph - N/A   Overcast
7:55 PM 54.5 °F - 41.2 °F 61% 29.67 in 10.0 mi SE 12.7 mph - N/A   Light Drizzle
8:15 PM 54.5 °F - 40.5 °F 59% 29.67 in 10.0 mi SE 12.7 mph 20.7 mph N/A   Overcast
8:35 PM 54.5 °F - 40.1 °F 58% 29.67 in 10.0 mi SE 16.1 mph - N/A   Overcast
8:55 PM 55.2 °F - 39.2 °F 55% 29.68 in 10.0 mi SE 12.7 mph - N/A   Overcast
9:15 PM 55.0 °F - 38.3 °F 53% 29.70 in 10.0 mi SE 9.2 mph - N/A Rain Light Rain
9:35 PM 51.1 °F - 42.4 °F 72% 29.69 in 7.0 mi ESE 8.1 mph - 0.02 in Rain Light Rain
9:55 PM 50.9 °F - 41.9 °F 71% 29.68 in 10.0 mi ESE 9.2 mph - 0.02 in Rain Light Rain
10:15 PM 50.9 °F - 41.5 °F 70% 29.67 in 10.0 mi ESE 10.4 mph - N/A   Overcast
10:35 PM 50.7 °F - 41.2 °F 70% 29.66 in 10.0 mi ESE 10.4 mph - N/A   Light Drizzle
10:55 PM 50.7 °F - 40.8 °F 69% 29.64 in 10.0 mi ESE 11.5 mph - N/A Rain Light Rain
11:15 PM 50.2 °F - 40.6 °F 70% 29.64 in 10.0 mi East 9.2 mph - 0.01 in   Drizzle
11:35 PM 50.0 °F - 40.8 °F 71% 29.64 in 10.0 mi East 8.1 mph - 0.01 in Rain Light Rain
11:55 PM 49.6 °F - 41.4 °F 73% 29.64 in 10.0 mi East 6.9 mph - 0.02 in Rain Light Rain